Location: A�t Lahcen
(32.8243°N, 5.4246°W)
Time: 00:46:42
(UTC+00:00)

Haruka - Pass Details

Date: 27 January 2021
Orbit: 533 x 21218 km, 31.2° (Epoch: 26 February)

Event Time Altitude Azimuth Distance (km) Brightness Sun altitude
Exits shadow 04:45:18 63° 119° (ESE) 1,030 3.7 -32.5°
Drops below altitude 10° 04:54:20 10° 97° (E) 4,991 8.1 -30.6°
Sets 05:02:04 0° 97° (E) 8,159 9.5 -28.9°
